| time (UTC) | temp F | wind direction | speed knots | gust knots | rain 1hr in | rain 24hr in | rain mn in | humidity % | barometer mb |
| 20260905163045 | 86 | 334 | 3.5 | 9.6 | 0.00 | 0.00 | 0.00 | 70 | 1016.1 |
| 20260905162545 | 87 | 48 | 3.5 | 12.2 | 0.00 | 0.00 | 0.00 | 73 | 1016.2 |
| 20260905162045 | 87 | 11 | 6.1 | 12.2 | 0.00 | 0.00 | 0.00 | 72 | 1016.1 |
| 20260905161544 | 87 | 36 | 3.5 | 9.6 | 0.00 | 0.00 | 0.00 | 71 | 1016.1 |
| 20260905161045 | 88 | 316 | 2.6 | 14.8 | 0.00 | 0.00 | 0.00 | 73 | 1016.1 |
| 20260905160545 | 88 | 13 | 8.7 | 14.8 | 0.00 | 0.00 | 0.00 | 72 | 1016.2 |
| 20260905160044 | 88 | 334 | 4.3 | 7.8 | 0.00 | 0.00 | 0.00 | 70 | 1015.9 |
| 20260905154545 | 88 | 46 | 3.5 | 5.2 | 0.00 | 0.00 | 0.00 | 69 | 1015.5 |
| 20260905153543 | 88 | 34 | 2.6 | 7.8 | 0.00 | 0.00 | 0.00 | 70 | 1015.5 |
| 20260905153044 | 88 | 319 | 3.5 | 7.8 | 0.00 | 0.00 | 0.00 | 72 | 1015.6 |
| 20260905152543 | 87 | 344 | 3.5 | 6.1 | 0.00 | 0.00 | 0.00 | 73 | 1015.5 |
| 20260905152043 | 87 | 13 | 2.6 | 4.3 | 0.00 | 0.00 | 0.00 | 71 | 1015.5 |
| 20260905151543 | 87 | 44 | 0.9 | 2.6 | 0.00 | 0.00 | 0.00 | 74 | 1015.3 |
| 20260905151043 | 86 | 340 | 0.9 | 2.6 | 0.00 | 0.00 | 0.00 | 72 | 1015.2 |
| 20260905150543 | 86 | 34 | 1.7 | 2.6 | 0.00 | 0.00 | 0.00 | 70 | 1015.0 |
| 20260905150042 | 86 | 123 | 0.9 | 2.6 | 0.00 | 0.00 | 0.00 | 69 | 1015.0 |
| 20260905145542 | 85 | 9 | 0.9 | 2.6 | 0.00 | 0.00 | 0.00 | 70 | 1015.0 |
| 20260905145042 | 85 | 265 | 0.0 | 1.7 | 0.00 | 0.00 | 0.00 | 70 | 1014.9 |
| 20260905144543 | 85 | 178 | 0.9 | 2.6 | 0.00 | 0.00 | 0.00 | 71 | 1014.8 |
| 20260905144041 | 85 | 137 | 0.0 | 3.5 | 0.00 | 0.00 | 0.00 | 73 | 1014.7 |
| 20260905143041 | 85 | 346 | 1.7 | 2.6 | 0.00 | 0.00 | 0.00 | 71 | 1014.7 |
| 20260905142540 | 85 | 9 | 0.0 | 3.5 | 0.00 | 0.00 | 0.00 | 73 | 1014.5 |
| 20260905141535 | 84 | 178 | 1.7 | 4.3 | 0.00 | 0.00 | 0.00 | 74 | 1014.2 |
| 20260905140536 | 82 | 129 | 1.7 | 4.3 | 0.00 | 0.00 | 0.00 | 81 | 1014.4 |
| 20260905140035 | 80 | 76 | 2.6 | 4.3 | 0.00 | 0.00 | 0.00 | 84 | 1014.1 |
| 20260905135535 | 79 | 193 | 1.7 | 5.2 | 0.00 | 0.00 | 0.00 | 86 | 1013.8 |
| 20260905135034 | 78 | 164 | 1.7 | 5.2 | 0.00 | 0.00 | 0.00 | 88 | 1013.8 |
| 20260905134536 | 78 | 131 | 1.7 | 3.5 | 0.00 | 0.00 | 0.00 | 89 | 1013.9 |
| 20260905134034 | 77 | 178 | 1.7 | 2.6 | 0.00 | 0.00 | 0.00 | 89 | 1013.9 |
| 20260905133534 | 77 | 178 | 1.7 | 2.6 | 0.00 | 0.00 | 0.00 | 90 | 1014.2 |
| 20260905133034 | 76 | 205 | 0.9 | 1.7 | 0.00 | 0.00 | 0.00 | 90 | 1014.2 |
| 20260905132533 | 75 | 239 | 0.0 | 1.7 | 0.00 | 0.00 | 0.00 | 90 | 1014.3 |
| 20260905132033 | 74 | 265 | 0.0 | 1.7 | 0.00 | 0.00 | 0.00 | 90 | 1014.2 |
| 20260905131022 | 73 | 9 | 0.9 | 1.7 | 0.00 | 0.00 | 0.00 | 90 | 1013.8 |
| 20260905130521 | 73 | 309 | 0.0 | 1.7 | 0.00 | 0.00 | 0.00 | 90 | 1013.7 |
| 20260905130021 | 73 | 212 | 0.9 | 1.7 | 0.00 | 0.00 | 0.00 | 90 | 1013.7 |
| 20260905125520 | 73 | 221 | 0.9 | 0.9 | 0.00 | 0.00 | 0.00 | 90 | 1013.7 |
| 20260905124520 | 72 | 9 | 0.0 | 0.9 | 0.00 | 0.00 | 0.00 | 90 | 1013.6 |
| 20260905124020 | 72 | 265 | 0.0 | 0.9 | 0.00 | 0.00 | 0.00 | 90 | 1013.4 |
| 20260905123520 | 72 | 221 | 0.0 | 0.9 | 0.00 | 0.00 | 0.00 | 89 | 1013.4 |
| 20260905123021 | 73 | 221 | 0.0 | 0.9 | 0.00 | 0.00 | 0.00 | 89 | 1013.3 |
| 20260905122019 | 72 | 205 | 0.0 | 1.7 | 0.00 | 0.00 | 0.00 | 89 | 1013.1 |
| 20260905121514 | 72 | 51 | 0.9 | 1.7 | 0.00 | 0.00 | 0.00 | 89 | 1013.0 |
| 20260905121013 | 72 | 221 | 0.0 | 1.7 | 0.00 | 0.00 | 0.00 | 89 | 1012.8 |
| 20260905120003 | 73 | 34 | 0.0 | 1.7 | 0.00 | 0.00 | 0.00 | 89 | 1012.7 |
| 20260905114958 | 73 | 153 | 0.9 | 1.7 | 0.00 | 0.00 | 0.00 | 90 | 1012.4 |
| 20260905114458 | 73 | 212 | 0.9 | 1.7 | 0.00 | 0.00 | 0.00 | 90 | 1012.4 |
| 20260905113958 | 73 | 178 | 0.9 | 1.7 | 0.00 | 0.00 | 0.00 | 90 | 1012.7 |
| 20260905113500 | 73 | 51 | 0.0 | 1.7 | 0.00 | 0.00 | 0.00 | 90 | 1012.7 |
| 20260905112950 | 72 | 93 | 0.0 | 0.9 | 0.00 | 0.00 | 0.00 | 90 | 1012.8 |
| 20260905111947 | 72 | 108 | 0.0 | 1.7 | 0.00 | 0.00 | 0.00 | 90 | 1012.7 |
| 20260905111447 | 72 | 93 | 0.0 | 1.7 | 0.00 | 0.00 | 0.00 | 90 | 1012.7 |
| 20260905110948 | 72 | 146 | 0.0 | 1.7 | 0.00 | 0.00 | 0.00 | 90 | 1012.6 |
| 20260905110447 | 73 | 111 | 0.0 | 1.7 | 0.00 | 0.00 | 0.00 | 90 | 1012.6 |
| 20260905105947 | 73 | 108 | 0.9 | 1.7 | 0.00 | 0.00 | 0.00 | 90 | 1012.5 |
| 20260905105447 | 72 | 146 | 0.9 | 2.6 | 0.00 | 0.00 | 0.00 | 90 | 1012.4 |
| 20260905104947 | 73 | 188 | 0.9 | 2.6 | 0.00 | 0.00 | 0.00 | 90 | 1012.4 |
| 20260905104447 | 73 | 178 | 0.9 | 1.7 | 0.00 | 0.00 | 0.00 | 90 | 1012.4 |
| 20260905103447 | 73 | 178 | 0.9 | 1.7 | 0.00 | 0.00 | 0.00 | 90 | 1012.5 |
| 20260905102946 | 73 | 196 | 0.9 | 1.7 | 0.00 | 0.00 | 0.00 | 90 | 1012.5 |
| 20260905102447 | 73 | 93 | 0.9 | 1.7 | 0.00 | 0.00 | 0.00 | 90 | 1012.4 |
| 20260905101936 | 73 | 178 | 0.0 | 1.7 | 0.00 | 0.00 | 0.00 | 90 | 1012.4 |
| 20260905100935 | 73 | 137 | 0.9 | 2.6 | 0.00 | 0.00 | 0.00 | 90 | 1012.4 |
| 20260905100437 | 73 | 106 | 0.9 | 1.7 | 0.00 | 0.00 | 0.00 | 90 | 1012.4 |
| 20260905095934 | 73 | 196 | 0.9 | 1.7 | 0.00 | 0.00 | 0.00 | 90 | 1012.3 |
| 20260905094935 | 73 | 108 | 0.0 | 1.7 | 0.00 | 0.00 | 0.00 | 90 | 1012.2 |
| 20260905094435 | 73 | 137 | 0.9 | 1.7 | 0.00 | 0.00 | 0.00 | 90 | 1012.1 |
| 20260905093935 | 73 | 126 | 0.0 | 1.7 | 0.00 | 0.00 | 0.00 | 90 | 1012.2 |
| 20260905092935 | 74 | 93 | 0.9 | 1.7 | 0.00 | 0.00 | 0.00 | 90 | 1012.1 |
| 20260905092434 | 73 | 119 | 0.0 | 1.7 | 0.00 | 0.00 | 0.00 | 90 | 1012.1 |
| 20260905091936 | 73 | 9 | 0.0 | 1.7 | 0.00 | 0.00 | 0.00 | 90 | 1012.1 |
| 20260905091434 | 73 | 9 | 0.0 | 1.7 | 0.00 | 0.00 | 0.00 | 90 | 1012.1 |
| 20260905090934 | 73 | 137 | 0.0 | 1.7 | 0.00 | 0.00 | 0.00 | 90 | 1012.1 |
| 20260905090434 | 73 | 119 | 0.0 | 0.9 | 0.00 | 0.00 | 0.00 | 90 | 1012.1 |
| 20260905085934 | 73 | 34 | 0.0 | 0.9 | 0.00 | 0.00 | 0.00 | 90 | 1012.2 |
| 20260905085424 | 73 | 93 | 0.0 | 0.9 | 0.00 | 0.00 | 0.00 | 90 | 1012.3 |
| 20260905084923 | 73 | 51 | 0.0 | 0.9 | 0.00 | 0.00 | 0.00 | 90 | 1012.2 |
| 20260905084425 | 73 | 221 | 0.0 | 1.7 | 0.00 | 0.00 | 0.00 | 90 | 1012.4 |
| 20260905083919 | 74 | 196 | 0.0 | 0.9 | 0.00 | 0.00 | 0.00 | 90 | 1012.5 |
| 20260905083418 | 74 | 221 | 0.0 | 0.9 | 0.00 | 0.00 | 0.00 | 90 | 1012.5 |
| 20260905082918 | 74 | 178 | 0.0 | 0.9 | 0.00 | 0.00 | 0.00 | 90 | 1012.5 |
| 20260905082417 | 74 | 137 | 0.0 | 0.9 | 0.00 | 0.00 | 0.00 | 90 | 1012.5 |
| 20260905081918 | 74 | 51 | 0.0 | 0.9 | 0.00 | 0.00 | 0.00 | 90 | 1012.5 |
| 20260905081418 | 74 | 51 | 0.0 | 0.9 | 0.00 | 0.00 | 0.00 | 90 | 1012.6 |
| 20260905080917 | 74 | 51 | 0.0 | 0.9 | 0.00 | 0.00 | 0.00 | 90 | 1012.6 |
| 20260905080418 | 74 | 51 | 0.0 | 1.7 | 0.00 | 0.00 | 0.00 | 90 | 1012.7 |
| 20260905075419 | 74 | 178 | 0.9 | 1.7 | 0.00 | 0.00 | 0.00 | 90 | 1012.7 |
| 20260905074917 | 75 | 193 | 0.9 | 0.9 | 0.00 | 0.00 | 0.00 | 89 | 1012.8 |
| 20260905074417 | 75 | 178 | 0.0 | 1.7 | 0.00 | 0.00 | 0.00 | 90 | 1012.8 |
| 20260905073917 | 75 | 178 | 0.0 | 1.7 | 0.00 | 0.00 | 0.00 | 90 | 1012.8 |
| 20260905073417 | 75 | 51 | 0.0 | 0.9 | 0.00 | 0.00 | 0.00 | 89 | 1012.9 |
| 20260905072913 | 75 | 221 | 0.0 | 0.9 | 0.00 | 0.00 | 0.00 | 89 | 1013.0 |
| 20260905072412 | 75 | 205 | 0.0 | 0.9 | 0.00 | 0.00 | 0.00 | 89 | 1013.0 |
| 20260905071912 | 76 | 221 | 0.0 | 0.9 | 0.00 | 0.00 | 0.00 | 89 | 1013.0 |
| 20260905071407 | 76 | 93 | 0.0 | 1.7 | 0.00 | 0.00 | 0.00 | 90 | 1013.0 |
| 20260905070907 | 76 | 212 | 0.0 | 1.7 | 0.00 | 0.00 | 0.00 | 90 | 1013.0 |
| 20260905070407 | 76 | 30 | 0.0 | 1.7 | 0.00 | 0.00 | 0.00 | 89 | 1013.0 |
| 20260905065909 | 76 | 178 | 0.0 | 0.9 | 0.00 | 0.00 | 0.00 | 89 | 1013.1 |
| 20260905065407 | 76 | 221 | 0.0 | 0.9 | 0.00 | 0.00 | 0.00 | 89 | 1013.0 |
| 20260905064907 | 76 | 221 | 0.0 | 1.7 | 0.00 | 0.00 | 0.00 | 89 | 1013.1 |
| 20260905064407 | 76 | 178 | 0.9 | 1.7 | 0.00 | 0.00 | 0.00 | 89 | 1013.1 |
| 20260905063906 | 76 | 190 | 0.9 | 1.7 | 0.00 | 0.00 | 0.00 | 89 | 1013.3 |
| 20260905063406 | 76 | 217 | 0.0 | 1.7 | 0.00 | 0.00 | 0.00 | 89 | 1013.1 |
| 20260905062907 | 76 | 298 | 0.0 | 1.7 | 0.00 | 0.00 | 0.00 | 89 | 1013.3 |
| 20260905062406 | 76 | 247 | 0.9 | 1.7 | 0.00 | 0.00 | 0.00 | 89 | 1013.3 |
| 20260905061906 | 77 | 51 | 0.0 | 1.7 | 0.00 | 0.00 | 0.00 | 89 | 1013.3 |
| 20260905060906 | 77 | 265 | 0.0 | 0.9 | 0.00 | 0.00 | 0.00 | 89 | 1013.3 |
| 20260905055908 | 77 | 9 | 0.0 | 0.9 | 0.00 | 0.00 | 0.00 | 89 | 1013.3 |
| 20260905055400 | 77 | 265 | 0.0 | 0.9 | 0.00 | 0.00 | 0.00 | 88 | 1013.3 |
| 20260905054355 | 78 | 137 | 0.9 | 1.7 | 0.00 | 0.00 | 0.00 | 89 | 1013.3 |
| 20260905053856 | 78 | 51 | 0.0 | 1.7 | 0.00 | 0.00 | 0.00 | 89 | 1013.1 |
| 20260905053355 | 77 | 26 | 0.9 | 1.7 | 0.00 | 0.00 | 0.00 | 88 | 1013.1 |
| 20260905052855 | 78 | 309 | 0.0 | 0.9 | 0.00 | 0.00 | 0.00 | 88 | 1013.1 |
| 20260905052354 | 78 | 309 | 0.0 | 0.9 | 0.00 | 0.00 | 0.00 | 88 | 1013.0 |
| 20260905051855 | 78 | 119 | 0.0 | 1.7 | 0.00 | 0.00 | 0.00 | 88 | 1013.0 |
| 20260905051355 | 78 | 137 | 0.0 | 1.7 | 0.00 | 0.00 | 0.00 | 88 | 1013.0 |
| 20260905050855 | 78 | 178 | 0.0 | 0.9 | 0.00 | 0.00 | 0.00 | 88 | 1013.0 |
| 20260905045854 | 78 | 221 | 0.0 | 0.9 | 0.00 | 0.00 | 0.00 | 87 | 1013.0 |
| 20260905045355 | 79 | 221 | 0.0 | 0.9 | 0.00 | 0.00 | 0.00 | 87 | 1013.0 |
| 20260905044848 | 79 | 137 | 0.9 | 0.9 | 0.00 | 0.00 | 0.00 | 87 | 1012.9 |
| 20260905044348 | 79 | 153 | 0.0 | 0.9 | 0.00 | 0.00 | 0.00 | 87 | 1012.8 |
| 20260905043344 | 79 | 221 | 0.0 | 1.7 | 0.00 | 0.00 | 0.00 | 87 | 1012.8 |
| 20260905042843 | 79 | 196 | 0.9 | 0.9 | 0.00 | 0.00 | 0.00 | 87 | 1012.8 |
| 20260905042343 | 79 | 51 | 0.9 | 0.9 | 0.00 | 0.00 | 0.00 | 87 | 1012.7 |
| 20260905041843 | 80 | 232 | 0.0 | 0.9 | 0.00 | 0.00 | 0.00 | 87 | 1012.7 |
| 20260905041343 | 80 | 265 | 0.0 | 0.9 | 0.00 | 0.00 | 0.00 | 86 | 1012.7 |
| 20260905040844 | 80 | 221 | 0.0 | 0.9 | 0.00 | 0.00 | 0.00 | 87 | 1012.6 |
| 20260905040332 | 80 | 221 | 0.0 | 0.9 | 0.00 | 0.00 | 0.00 | 86 | 1012.6 |
| 20260905035832 | 80 | 178 | 0.0 | 1.7 | 0.00 | 0.00 | 0.00 | 86 | 1012.6 |
| 20260905035332 | 80 | 212 | 0.9 | 1.7 | 0.00 | 0.00 | 0.00 | 86 | 1012.5 |
| 20260905034831 | 81 | 221 | 0.0 | 0.9 | 0.00 | 0.00 | 0.00 | 86 | 1012.5 |
| 20260905034332 | 81 | 93 | 0.0 | 0.9 | 0.00 | 0.00 | 0.00 | 86 | 1012.6 |
| 20260905033832 | 81 | 178 | 0.0 | 0.9 | 0.00 | 0.00 | 0.00 | 86 | 1012.5 |
| 20260905033326 | 81 | 51 | 0.0 | 1.7 | 0.00 | 0.00 | 0.00 | 85 | 1012.5 |
| 20260905032311 | 81 | 238 | 0.9 | 1.7 | 0.00 | 0.00 | 0.00 | 85 | 1012.5 |
| 20260905031812 | 81 | 221 | 0.0 | 1.7 | 0.00 | 0.00 | 0.00 | 84 | 1012.5 |
| 20260905031310 | 82 | 229 | 1.7 | 1.7 | 0.00 | 0.00 | 0.00 | 84 | 1012.4 |
| 20260905025810 | 82 | 9 | 0.9 | 1.7 | 0.00 | 0.00 | 0.00 | 83 | 1012.3 |
| 20260905025309 | 82 | 325 | 0.0 | 0.9 | 0.00 | 0.00 | 0.00 | 82 | 1012.2 |
| 20260905024810 | 82 | 178 | 0.0 | 0.9 | 0.00 | 0.00 | 0.00 | 82 | 1012.1 |
| 20260905024305 | 83 | 238 | 0.0 | 0.9 | 0.00 | 0.00 | 0.00 | 82 | 1012.2 |
| 20260905023805 | 83 | 309 | 0.0 | 1.7 | 0.00 | 0.00 | 0.00 | 81 | 1012.0 |
| 20260905022758 | 83 | 196 | 0.9 | 0.9 | 0.00 | 0.00 | 0.00 | 81 | 1012.0 |
| 20260905022259 | 84 | 51 | 0.0 | 0.9 | 0.00 | 0.00 | 0.00 | 80 | 1012.0 |
| 20260905021800 | 84 | 51 | 0.0 | 0.9 | 0.00 | 0.00 | 0.00 | 80 | 1012.0 |
| 20260905021259 | 84 | 178 | 0.0 | 0.9 | 0.00 | 0.00 | 0.00 | 80 | 1012.0 |
| 20260905020758 | 85 | 9 | 0.0 | 1.7 | 0.00 | 0.00 | 0.00 | 79 | 1012.0 |
| 20260905020258 | 85 | 137 | 0.9 | 1.7 | 0.00 | 0.00 | 0.00 | 78 | 1012.0 |
| 20260905015758 | 85 | 146 | 0.9 | 1.7 | 0.00 | 0.00 | 0.00 | 77 | 1011.9 |
| 20260905015258 | 86 | 212 | 0.9 | 1.7 | 0.00 | 0.00 | 0.00 | 76 | 1012.0 |
| 20260905013759 | 87 | 265 | 0.0 | 1.7 | 0.00 | 0.00 | 0.00 | 73 | 1011.6 |
| 20260905013253 | 87 | 51 | 0.0 | 1.7 | 0.00 | 0.00 | 0.00 | 72 | 1011.6 |
| 20260905012752 | 88 | 51 | 0.0 | 0.9 | 0.00 | 0.00 | 0.00 | 70 | 1011.6 |
| 20260905012252 | 89 | 51 | 0.0 | 1.7 | 0.00 | 0.00 | 0.00 | 70 | 1011.5 |
| 20260905011253 | 89 | 115 | 0.9 | 1.7 | 0.00 | 0.00 | 0.00 | 68 | 1011.5 |
| 20260905010752 | 89 | 119 | 0.0 | 1.7 | 0.00 | 0.00 | 0.00 | 67 | 1011.5 |
| 20260905010251 | 90 | 126 | 0.9 | 1.7 | 0.00 | 0.00 | 0.00 | 66 | 1011.4 |
| 20260905005751 | 90 | 153 | 0.9 | 1.7 | 0.00 | 0.00 | 0.00 | 66 | 1011.3 |
| 20260905004752 | 91 | 165 | 0.9 | 2.6 | 0.00 | 0.00 | 0.00 | 65 | 1011.3 |
| 20260905004253 | 91 | 153 | 0.9 | 2.6 | 0.00 | 0.00 | 0.00 | 64 | 1011.3 |
| 20260905003751 | 91 | 196 | 1.7 | 5.2 | 0.00 | 0.00 | 0.00 | 64 | 1011.4 |
| 20260905003251 | 91 | 134 | 2.6 | 5.2 | 0.00 | 0.00 | 0.00 | 62 | 1011.3 |
| 20260905002751 | 92 | 142 | 0.9 | 2.6 | 0.00 | 0.00 | 0.00 | 63 | 1011.3 |
| 20260905001750 | 92 | 178 | 0.9 | 1.7 | 0.00 | 0.00 | 0.00 | 61 | 1011.3 |
| 20260905001250 | 92 | 137 | 0.9 | 2.6 | 0.00 | 0.00 | 0.00 | 61 | 1011.2 |
| 20260905000749 | 92 | 137 | 1.7 | 2.6 | 0.00 | 0.00 | 0.00 | 60 | 1011.2 |
| 20260905000249 | 92 | 111 | 0.9 | 1.7 | 0.00 | 0.00 | 0.00 | 61 | 1011.3 |
| 20260904235749 | 92 | 178 | 0.9 | 1.7 | 0.00 | 0.00 | 0.00 | 62 | 1011.3 |
| 20260904234748 | 92 | 178 | 0.0 | 0.9 | 0.00 | 0.00 | 0.00 | 60 | 1011.3 |
| 20260904234246 | 93 | 178 | 0.0 | 1.7 | 0.00 | 0.00 | 0.00 | 62 | 1011.2 |
| 20260904233746 | 93 | 205 | 0.0 | 1.7 | 0.00 | 0.00 | 0.00 | 62 | 1011.3 |
| 20260904233246 | 93 | 221 | 0.9 | 1.7 | 0.00 | 0.00 | 0.00 | 58 | 1011.3 |
| 20260904232246 | 94 | 221 | 1.7 | 3.5 | 0.00 | 0.00 | 0.00 | 57 | 1011.4 |
| 20260904231746 | 94 | 221 | 0.9 | 4.3 | 0.00 | 0.00 | 0.00 | 57 | 1011.4 |
| 20260904231245 | 94 | 205 | 2.6 | 7.0 | 0.00 | 0.00 | 0.00 | 56 | 1011.5 |
| 20260904230745 | 95 | 238 | 3.5 | 7.0 | 0.00 | 0.00 | 0.00 | 55 | 1011.5 |
| 20260904230246 | 96 | 255 | 3.5 | 5.2 | 0.00 | 0.00 | 0.00 | 57 | 1011.5 |
| 20260904225745 | 95 | 257 | 2.6 | 5.2 | 0.00 | 0.00 | 0.00 | 56 | 1011.4 |
| 20260904225245 | 95 | 232 | 2.6 | 5.2 | 0.00 | 0.00 | 0.00 | 56 | 1011.4 |
| 20260904224744 | 95 | 245 | 1.7 | 6.1 | 0.00 | 0.00 | 0.00 | 61 | 1011.4 |
| 20260904223744 | 94 | 221 | 3.5 | 6.1 | 0.00 | 0.00 | 0.00 | 57 | 1011.5 |
| 20260904223244 | 94 | 205 | 2.6 | 6.1 | 0.00 | 0.00 | 0.00 | 61 | 1011.4 |
| 20260904222744 | 94 | 225 | 4.3 | 6.1 | 0.00 | 0.00 | 0.00 | 58 | 1011.4 |
| 20260904222243 | 94 | 238 | 2.6 | 7.8 | 0.00 | 0.00 | 0.00 | 57 | 1011.4 |
| 20260904221743 | 95 | 232 | 4.3 | 7.8 | 0.00 | 0.00 | 0.00 | 56 | 1011.4 |
| 20260904221243 | 95 | 207 | 3.5 | 8.7 | 0.00 | 0.00 | 0.00 | 55 | 1011.4 |
| 20260904220745 | 96 | 200 | 3.5 | 8.7 | 0.00 | 0.00 | 0.00 | 54 | 1011.4 |
| 20260904215742 | 96 | 254 | 5.2 | 7.8 | 0.00 | 0.00 | 0.00 | 56 | 1011.3 |
| 20260904215242 | 96 | 168 | 2.6 | 7.8 | 0.00 | 0.00 | 0.00 | 56 | 1011.3 |
| 20260904214742 | 96 | 208 | 3.5 | 8.7 | 0.00 | 0.00 | 0.00 | 54 | 1011.3 |
| 20260904214243 | 96 | 236 | 3.5 | 8.7 | 0.00 | 0.00 | 0.00 | 55 | 1011.4 |
| 20260904213742 | 95 | 212 | 3.5 | 7.8 | 0.00 | 0.00 | 0.00 | 53 | 1011.3 |
| 20260904213242 | 95 | 201 | 3.5 | 7.8 | 0.00 | 0.00 | 0.00 | 55 | 1011.4 |
| 20260904212241 | 96 | 209 | 5.2 | 10.4 | 0.00 | 0.00 | 0.00 | 55 | 1011.3 |
| 20260904211240 | 95 | 221 | 4.3 | 9.6 | 0.00 | 0.00 | 0.00 | 55 | 1011.3 |
| 20260904210239 | 95 | 140 | 3.5 | 8.7 | 0.00 | 0.00 | 0.00 | 53 | 1011.3 |
| 20260904205739 | 95 | 196 | 5.2 | 8.7 | 0.00 | 0.00 | 0.00 | 52 | 1011.4 |
| 20260904205239 | 95 | 146 | 4.3 | 8.7 | 0.00 | 0.00 | 0.00 | 54 | 1011.3 |
| 20260904204739 | 95 | 216 | 3.5 | 7.0 | 0.00 | 0.00 | 0.00 | 53 | 1011.3 |
| 20260904204239 | 95 | 238 | 3.5 | 7.0 | 0.00 | 0.00 | 0.00 | 54 | 1011.2 |
| 20260904203739 | 96 | 196 | 3.5 | 7.0 | 0.00 | 0.00 | 0.00 | 54 | 1011.3 |
| 20260904202738 | 95 | 178 | 2.6 | 7.8 | 0.00 | 0.00 | 0.00 | 55 | 1011.3 |
| 20260904202237 | 95 | 178 | 3.5 | 8.7 | 0.00 | 0.00 | 0.00 | 54 | 1011.4 |
| 20260904201738 | 95 | 212 | 5.2 | 8.7 | 0.00 | 0.00 | 0.00 | 54 | 1011.4 |
| 20260904201239 | 95 | 202 | 4.3 | 7.8 | 0.00 | 0.00 | 0.00 | 56 | 1011.4 |
| 20260904200738 | 94 | 221 | 4.3 | 8.7 | 0.00 | 0.00 | 0.00 | 58 | 1011.4 |
| 20260904200238 | 94 | 193 | 4.3 | 9.6 | 0.00 | 0.00 | 0.00 | 60 | 1011.5 |
| 20260904195737 | 94 | 221 | 4.3 | 9.6 | 0.00 | 0.00 | 0.00 | 55 | 1011.4 |
| 20260904195237 | 94 | 231 | 3.5 | 8.7 | 0.00 | 0.00 | 0.00 | 57 | 1011.5 |
| 20260904194236 | 94 | 144 | 2.6 | 7.0 | 0.00 | 0.00 | 0.00 | 58 | 1011.5 |
| 20260904193736 | 94 | 210 | 3.5 | 9.6 | 0.00 | 0.00 | 0.00 | 58 | 1011.6 |
| 20260904193236 | 94 | 230 | 4.3 | 9.6 | 0.00 | 0.00 | 0.00 | 57 | 1011.6 |
| 20260904192736 | 94 | 182 | 2.6 | 7.0 | 0.00 | 0.00 | 0.00 | 60 | 1011.6 |
| 20260904192236 | 94 | 227 | 2.6 | 7.8 | 0.00 | 0.00 | 0.00 | 61 | 1011.6 |
| 20260904191736 | 93 | 273 | 4.3 | 7.8 | 0.00 | 0.00 | 0.00 | 58 | 1011.6 |
| 20260904191237 | 93 | 238 | 4.3 | 7.0 | 0.00 | 0.00 | 0.00 | 57 | 1011.6 |
| 20260904190736 | 93 | 247 | 2.6 | 8.7 | 0.00 | 0.00 | 0.00 | 59 | 1011.6 |
| 20260904185736 | 93 | 140 | 3.5 | 7.0 | 0.00 | 0.00 | 0.00 | 60 | 1011.6 |
| 20260904185235 | 93 | 231 | 2.6 | 4.3 | 0.00 | 0.00 | 0.00 | 62 | 1011.6 |
| 20260904184735 | 92 | 209 | 1.7 | 5.2 | 0.00 | 0.00 | 0.00 | 65 | 1011.7 |
| 20260904184235 | 92 | 205 | 2.6 | 7.8 | 0.00 | 0.00 | 0.00 | 60 | 1011.8 |
| 20260904183235 | 91 | 228 | 1.7 | 7.8 | 0.00 | 0.00 | 0.00 | 63 | 1011.9 |
| 20260904182735 | 91 | 189 | 4.3 | 7.8 | 0.00 | 0.00 | 0.00 | 68 | 1011.9 |
| 20260904182234 | 91 | 208 | 3.5 | 6.1 | 0.00 | 0.00 | 0.00 | 67 | 1011.8 |
| 20260904181734 | 90 | 173 | 1.7 | 6.1 | 0.00 | 0.00 | 0.00 | 66 | 1011.9 |
| 20260904181235 | 89 | 168 | 3.5 | 9.6 | 0.00 | 0.00 | 0.00 | 65 | 1011.9 |
| 20260904180734 | 89 | 259 | 4.3 | 9.6 | 0.00 | 0.00 | 0.00 | 70 | 1011.8 |
| 20260904180233 | 89 | 250 | 4.3 | 9.6 | 0.00 | 0.00 | 0.00 | 69 | 1011.8 |
| 20260904173732 | 89 | 238 | 1.7 | 5.2 | 0.00 | 0.00 | 0.00 | 69 | 1011.9 |
| 20260904173232 | 89 | 223 | 3.5 | 7.0 | 0.00 | 0.00 | 0.00 | 67 | 1012.0 |
| 20260904172732 | 89 | 280 | 3.5 | 7.8 | 0.00 | 0.00 | 0.00 | 66 | 1012.0 |
| 20260904172231 | 90 | 236 | 4.3 | 9.6 | 0.00 | 0.00 | 0.00 | 65 | 1012.0 |
| 20260904171733 | 90 | 211 | 5.2 | 9.6 | 0.00 | 0.00 | 0.00 | 64 | 1012.0 |
| 20260904171229 | 89 | 243 | 3.5 | 7.0 | 0.00 | 0.00 | 0.00 | 65 | 1012.0 |
| 20260904170730 | 89 | 227 | 4.3 | 9.6 | 0.00 | 0.00 | 0.00 | 64 | 1012.1 |
| 20260904170230 | 89 | 221 | 4.3 | 9.6 | 0.00 | 0.00 | 0.00 | 64 | 1012.0 |
| 20260904165725 | 89 | 221 | 4.3 | 9.6 | 0.00 | 0.00 | 0.00 | 62 | 1011.9 |
| 20260904165224 | 89 | 271 | 5.2 | 9.6 | 0.00 | 0.00 | 0.00 | 66 | 1011.9 |
| 20260904164724 | 89 | 265 | 4.3 | 10.4 | 0.00 | 0.00 | 0.00 | 68 | 1011.9 |
| 20260904164224 | 89 | 208 | 6.1 | 10.4 | 0.00 | 0.00 | 0.00 | 63 | 1012.0 |
| 20260904163721 | 89 | 270 | 3.5 | 8.7 | 0.00 | 0.00 | 0.00 | 68 | 1012.1 |